Home   Weather   41°35'N, 87°41'W   Past weeks
Flag for USA

Past Weather in 41°35'N, 87°41'W, USA — Yesterday and Last 2 Weeks

Now
40 °F

Clear.


Feels Like: 35 °F
Forecast: 53 / 40 °F
Wind: 7 mph from West

Location: Chicago Midway Airport

Current Time: Oct 14, 2019 at 5:42:25 am

Latest Report: Oct 14, 2019 at 4:53 am


Visibility: 10 mi

Pressure: 30.03 "Hg

Humidity: 70%

Dew Point: 31 °F

Location of 41°35'N, 87°41'WLocation

Past Weather in 41°35'N, 87°41'W — Graph

°F

41°35'N, 87°41'W Temperature Yesterday

Maximum temperature yesterday: 55 °F (at 1:53 pm)
Minimum temperature yesterday: 39 °F (at 6:53 am)
Average temperature yesterday: 47 °F

High & Low Weather Summary for the Past Weeks

 TemperatureHumidityPressure
High88 °F (Oct 1, 2:53 pm)100% (Sep 30, 12:53 am)30.39 "Hg (Sep 30, 12:53 am)
Low37 °F (Oct 12, 5:53 am)31% (Oct 7, 2:53 pm)29.80 "Hg (Oct 11, 9:53 am)
Average61 °F71%30.04 "Hg
* Reported Sep 29 3:53 am — Oct 14 3:53 am, 41°35'N, 87°41'W. Weather by CustomWeather, © 2019

Note: Actual official high and low records may vary slightly from our data, if they occured in-between our weather recording intervals... More about our weather records

Advertising

41°35'N, 87°41'W Weather History for the Previous 24 Hours

Scroll right to see more
 ConditionsComfort  
Time TempWeatherWind HumidityBarometerVisibility
3:53 am
Mon, Oct 14
41 °FClear.7 mph67%30.00 "Hg10 mi
2:53 am42 °FPassing clouds.8 mph65%29.99 "Hg10 mi
1:53 am43 °FPassing clouds.8 mph60%29.99 "Hg10 mi
12:53 am45 °FPassing clouds.9 mph58%29.97 "Hg10 mi
11:53 pm
Sun, Oct 13
45 °FOvercast.7 mph58%29.96 "Hg10 mi
10:53 pm46 °FOvercast.8 mph58%29.96 "Hg10 mi
9:53 pm47 °FOvercast.8 mph56%29.97 "Hg10 mi
8:53 pm47 °FOvercast.9 mph54%29.95 "Hg10 mi
7:53 pm48 °FOvercast.16 mph52%29.94 "Hg10 mi
6:53 pm50 °FPassing clouds.12 mph52%29.91 "Hg10 mi
5:53 pm51 °FPartly sunny.14 mph50%29.88 "Hg10 mi
4:53 pm53 °FPartly sunny.15 mph47%29.85 "Hg10 mi
3:53 pm54 °FPartly sunny.14 mph45%29.83 "Hg10 mi
2:53 pm55 °FPartly sunny.20 mph44%29.82 "Hg10 mi
1:53 pm55 °FBroken clouds.23 mph42%29.82 "Hg10 mi
12:53 pm53 °FScattered clouds.18 mph45%29.83 "Hg10 mi
11:53 am51 °FPartly sunny.20 mph48%29.87 "Hg10 mi
10:53 am48 °FPartly sunny.22 mph52%29.88 "Hg10 mi
9:53 am46 °FPartly sunny.17 mph56%29.87 "Hg10 mi
8:53 am45 °FScattered clouds.16 mph60%29.86 "Hg10 mi
7:53 am42 °FBroken clouds.10 mph68%29.85 "Hg10 mi
6:53 am39 °FPassing clouds.7 mph76%29.85 "Hg10 mi
5:53 am40 °FPassing clouds.7 mph77%29.84 "Hg10 mi
Weather by CustomWeather, © 2019

See weather overview